Weather History for Wakefield, VA

Change the Weather History Date:

Wednesday, October 23, 2013

  Actual Average (KJGG) Record (KJGG)
Temperature  
Mean Temperature 54 °F -  
Max Temperature 62 °F 70 °F 86 °F (2007)
Min Temperature 44 °F 46 °F 26 °F (1952)
Degree Days  
Heating Degree Days 11    
Growing Degree Days 4 (Base 50)    
Moisture  
Dew Point 49 °F    
Average Humidity 82    
Maximum Humidity 96    
Minimum Humidity 53    
Precipitation  
Precipitation 0.18 in - - ()
Sea Level Pressure  
Sea Level Pressure 29.74 in    
Wind  
Wind Speed 3 mph (NNW)    
Max Wind Speed 8 mph    
Max Gust Speed 17 mph    
Visibility 6 miles    
Events Fog , Rain    
Averages and records for this station are not official NWS values.
T = Trace of Precipitation, MM = Missing Value Source: NWS Daily Summary

Daily Weather History Graph

Daily Weather History Graph

Search for Another Location

Airport:

Trip Planner

Search our weather history database for the weather conditions in past years. The results will help you decide how hot, cold, wet, or windy it might be!

Date:

Astronomy

Oct. 23, 2013 Rise Set
Actual Time 7:23 AM EDT 6:20 PM EDT
Civil Twilight 6:56 AM EDT 6:47 PM EDT
Nautical Twilight 6:26 AM EDT 7:17 PM EDT
Astronomical Twilight 5:56 AM EDT 7:47 PM EDT
Moon 9:53 PM EDT (10/23) 11:35 AM EDT (10/23)
Length of Visible Light 11h 50m
Length of Day
10h 57m
Waning Gibbous, 79% of the Moon is Illuminated
Oct 23
Waning Gibbous
Oct 26
Last Quarter
Nov 3
New
Nov 10
First Quarter
Nov 17
Full

Hourly Weather History & Observations

Time (EDT) Temp. Dew Point Humidity Pressure Visibility Wind Dir Wind Speed Gust Speed Precip Events Conditions
12:54 AM 57.9 °F 55.9 °F 93% 29.80 in 3.0 mi SSW 3.5 mph - N/A   Partly Cloudy
1:54 AM 57.9 °F 55.9 °F 93% 29.78 in 3.0 mi SW 3.5 mph - N/A   Partly Cloudy
2:09 AM 60.8 °F 55.4 °F 82% 29.78 in 2.5 mi Calm Calm - N/A   Scattered Clouds
2:54 AM 57.0 °F 54.0 °F 89% 29.76 in 2.0 mi Calm Calm - N/A   Mostly Cloudy
3:09 AM 57.2 °F 55.4 °F 94% 29.75 in 0.8 mi Calm Calm - N/A   Overcast
3:26 AM 57.2 °F 55.4 °F 94% 29.74 in 0.2 mi Calm Calm - N/A Fog Fog
3:54 AM 57.0 °F 55.0 °F 93% 29.73 in 0.2 mi Calm Calm - N/A Fog Fog
4:54 AM 57.0 °F 55.0 °F 93% 29.73 in 0.2 mi Calm Calm - N/A Fog Fog
5:33 AM 57.2 °F 55.4 °F 94% 29.72 in 0.5 mi Calm Calm - N/A Fog Fog
5:54 AM 57.0 °F 55.9 °F 96% 29.73 in 0.8 mi Calm Calm - N/A   Mist
6:19 AM 57.2 °F 55.4 °F 94% 29.71 in 1.8 mi Calm Calm - N/A   Overcast
6:50 AM 57.2 °F 55.4 °F 94% 29.71 in 0.5 mi WNW 4.6 mph - N/A Fog Fog
6:54 AM 55.9 °F 54.0 °F 93% 29.72 in 0.5 mi NNW 6.9 mph - N/A Fog Fog
7:00 AM 53.6 °F 51.8 °F 94% 29.70 in 2.5 mi North 8.1 mph - 0.00 in Rain Light Rain
7:06 AM 53.6 °F 51.8 °F 94% 29.71 in 9.0 mi Variable 5.8 mph - 0.00 in   Overcast
7:24 AM 53.6 °F 50.0 °F 88% 29.70 in 10.0 mi Variable 3.5 mph - 0.00 in   Overcast
7:54 AM 53.1 °F 48.9 °F 86% 29.70 in 10.0 mi North 3.5 mph - 0.00 in   Overcast
8:26 AM 51.8 °F 46.4 °F 82% 29.70 in 2.0 mi North 5.8 mph - 0.02 in Rain Light Rain
8:34 AM 51.8 °F 46.4 °F 82% 29.69 in 4.0 mi Calm Calm - 0.02 in Rain Light Rain
8:52 AM 51.8 °F 48.2 °F 88% 29.70 in 5.0 mi North 4.6 mph - 0.03 in Rain Light Rain
8:54 AM 51.1 °F 48.0 °F 89% 29.70 in 5.0 mi North 4.6 mph - 0.03 in Rain Light Rain
9:07 AM 51.8 °F 46.4 °F 82% 29.71 in 1.8 mi NNW 3.5 mph - 0.01 in Rain Light Rain
9:43 AM 48.2 °F 46.4 °F 93% 29.70 in 2.0 mi Calm Calm - 0.15 in Rain Light Rain
9:54 AM 48.9 °F 46.0 °F 90% 29.71 in 6.0 mi North 3.5 mph - 0.15 in Rain Light Rain
10:45 AM 51.8 °F 48.2 °F 88% 29.70 in 8.0 mi NNE 3.5 mph - 0.00 in   Overcast
10:54 AM 51.1 °F 48.0 °F 89% 29.70 in 8.0 mi Calm Calm - 0.00 in   Overcast
11:33 AM 53.6 °F 48.2 °F 82% 29.69 in 10.0 mi North 5.8 mph - N/A   Mostly Cloudy
11:54 AM 53.1 °F 46.9 °F 80% 29.71 in 10.0 mi North 4.6 mph - N/A   Overcast
12:27 PM 53.6 °F 46.4 °F 77% 29.72 in 10.0 mi Variable 5.8 mph - N/A   Overcast
12:54 PM 55.9 °F 46.9 °F 72% 29.70 in 10.0 mi North 3.5 mph - N/A   Mostly Cloudy
1:19 PM 57.2 °F 46.4 °F 67% 29.69 in 10.0 mi Variable 4.6 mph - N/A   Scattered Clouds
1:29 PM 57.2 °F 48.2 °F 72% 29.68 in 10.0 mi Variable 3.5 mph - N/A   Mostly Cloudy
1:54 PM 59.0 °F 46.9 °F 64% 29.69 in 9.0 mi NW 5.8 mph - N/A   Mostly Cloudy
2:06 PM 59.0 °F 46.4 °F 63% 29.68 in 8.0 mi Variable 5.8 mph - N/A   Scattered Clouds
2:54 PM 62.1 °F 46.9 °F 58% 29.68 in 10.0 mi WNW 6.9 mph - N/A   Scattered Clouds
3:54 PM 61.0 °F 45.0 °F 56% 29.70 in 10.0 mi Variable 4.6 mph - N/A   Mostly Cloudy
4:54 PM 61.0 °F 45.0 °F 56% 29.72 in 10.0 mi Variable 4.6 mph - N/A   Scattered Clouds
5:54 PM 57.9 °F 41.0 °F 53% 29.74 in 10.0 mi WNW 5.8 mph 17.3 mph N/A   Clear
6:54 PM 55.0 °F 41.0 °F 59% 29.78 in 10.0 mi Variable 3.5 mph - N/A   Clear
7:54 PM 48.0 °F 43.0 °F 83% 29.81 in 10.0 mi Calm Calm - N/A   Clear
8:54 PM 51.1 °F 41.0 °F 68% 29.85 in 10.0 mi Variable 4.6 mph - N/A   Clear
9:54 PM 51.1 °F 39.9 °F 66% 29.88 in 10.0 mi NNW 3.5 mph - N/A   Clear
10:54 PM 46.0 °F 41.0 °F 83% 29.93 in 10.0 mi Calm Calm - N/A   Scattered Clouds
11:54 PM 44.1 °F 39.9 °F 85% 29.95 in 10.0 mi Calm Calm - N/A   Clear